Terminal Aerodrome Forecast
Issued by NWS

Current Version | Previous Version | Graphics & Text | Print | Product List | Glossary On
Versions: 1 2 3 4 5 6 7 8 9 10 11 12 13 14 15 16 17 18 19 20
000
FTUS41 KPBZ 291700
TAFMGW
TAF
KMGW 291720Z 2918/3018 24005KT P6SM SCT035
     FM300900 00000KT 3SM BR SKC
     FM301500 24005KT P6SM BKN050=

USA.gov is the U.S. government's official web portal to all federal, state and local government web resources and services.